Guanajuato International Airport
MMLO : rendu visible

Aérodrome :











RETROUVEZ-NOUS SUR...

 
LOGIN :

S'inscrire | Disclaimer

   EN    FR    IT 

 









Légende :    VFR   VFR Marginal   IFR   IFR Intensif   IFR Très Intensif
Visi : 
Plafond : 
>= 8 km
>= 3000ft
5 à 8 km
1000 à 3000 ft
1500m à 5 km
500 à 1000 ft
800 à 1500m
200 à 500 ft
< 800m
< 200 ft
Symboles :   Orages  Brouillard  Fortes neiges  Fortes précipitations  Vent > 20 kt






- Altitude de l'aérodrome : 5956 ft
- Code IATA : BJX


MMLO - Guanajuato International

DERNIER METAR :
  • 161843Z 23006KT 10SM FEW030 BKN250 26/07 A3028 RMK 8/508

METARs EXPIRÉS :
  • 161740Z 23006KT 9SM BKN250 24/08 A3032 RMK SLP118 57001 977 8/008 HZY
  • 161641Z 23005KT 9SM BKN250 21/07 A3034 RMK 8/008 HZY

TAF TAF MMLO
Valide du 16 à 18h jusqu'au 17 à 18h UTC


161639Z 1618/1718 23010KT P6SM BKN250
TEMPO 1621/1701 SCT030
FM170300 00000KT P6SM BKN250



MET'MAP, la Météo Aéronautique d'un coup d'oeil ! - Copyright ORBIFLY Décembre 2007 - Disclaimer

ORBIFLY MET'MAP TEAM :

Programmation & Développement : Alexandra Zaïnal
Sur une idée originale de : Baudouin d'Aumeries
Assistance à la programmation : Marc-Olivier Méhu
Soutien technique & logistique : Manuel Goepfert

Contact : metmap@orbifly.com




SOURCES & CREDITS :

   NOAA       Earth
Advisory